[ hide orbit diagram ]
For accurate long-term ephemerides, please instead use our Horizons system.This orbit viewer was implemented using two-body methods, and hence should not be used for determining accurate long-term trajectories (over several years or decades) or planetary encounter circumstances.
Orbital Elements at Epoch 2459000.5 (2020-May-31.0) TDB
Reference: JPL 37 (heliocentric ecliptic J2000)
Element | Value | Uncertainty (1-sigma) | Units |
e | .04105372437164964 | 4.1176e-06 | |
a | 43.69505487539247 | 0.00087538 | au |
q | 41.901210136134 | 0.00087098 | au |
i | 7.989509534986373 | 2.0407e-05 | deg |
node | 188.9272645267949 | 0.00048571 | deg |
peri | 147.4512768390431 | 0.022287 | deg |
M | 301.1317698626183 | 0.021347 | deg |
tp | 2476251.939473085113 (2067-Aug-24.43947309) | 5.7385 | TDB |
period | 105498.6398574759 288.84 | 3.1703 0.00868 | d yr |
n | .003412366268288808 | 1.0254e-07 | deg/d |
Q | 45.48889961465093 | 0.00091132 | au |
|
| | Orbit Determination Parameters
Additional Information
|
[ show covariance matrix ]
Physical Parameter Table
Parameter |
Symbol |
Value |
Units |
Sigma |
Reference |
Notes |
absolute magnitude |
H |
2.4 |
|
n/a |
MPO235046 |
|
rotation period |
rot_per |
8.840 |
h |
n/a |
LCDB (Rev. 2020-October); Warner et al., 2009 |
Result based on less than full coverage, so that the period may be wrong by 30 percent or so. Published Reference List: [Rabinowitz, D.L.; Schaefer, B.E.; Tourtellotte, S.W. (2007) Astron. J. 133, 26-43.] |
|
50000 Quaoar | Discovered 2002 June 4 by C. A. Trujillo and M. E. Brown at Palomar. |
Quaoar is the great force of creation in the diverse myths of the Tongva, the indigenous people of the Los Angeles basin. Quaoar has no form or gender and dances and sings Weywot, Sky Father, into existence. Together, they create Chehooit, Earth Mother, and the trio bring Tamit, Grandfather Sun, to life. |
NOTE: some special characters may not display properly (any characters within {} are an attempt to place the proper accent above a character) |
Reference: 20021120/MPCPages.arc | Last Updated: 2010-02-08 |
|
|